Location: Poughquag
(41.6090°N, 73.6820°W)
Time: 14:29:16
(UTC-04:00)

Explorer 11/Cluster Stage 4 - Pass Details

Date: 01 June 2020
Orbit: 467 x 1259 km, 28.8° (Epoch: 05 July)

Event Time Altitude Azimuth Distance (km) Brightness Sun altitude
Rises 12:10:06 0° 255° (WSW) 4,128 10.2 68.6°
Reaches altitude 10° 12:15:53 10° 224° (SW) 3,223 10.0 69.1°
Maximum altitude 12:17:52 11° 209° (SSW) 3,148 10.0 69.2°
Drops below altitude 10° 12:19:52 10° 195° (SSW) 3,220 10.1 69.4°
Sets 12:25:39 0° 163° (SSE) 4,114 10.5 69.8°
